Tracking 18815 objects as of 19-October-2017
HD Live streaming from Space Station
objects crossing your sky now

COSMOS 970 DEB

Track COSMOS 970 DEB now!
10-day predictions


NORAD ID: 10563
Int'l Code: 1977-121E
Perigee: 878.0 km
Apogee: 1,019.4 km
Inclination: 65.8 °
Period: 103.9 minutes
Semi major axis: 7319 km
RCS: 0.0231 m2 (small)
Launch date: December 21, 1977
Source: Commonwealth of Independent States (former USSR) (CIS)
Launch site: TYURATAM MISSILE AND SPACE COMPLEX (TTMTR)

Note: This is SATELLITE DEBRIS
aabbcc
Your satellite tracking list
Your tracking list is empty





NASA's NSSDC Master Catalog

Two Line Element Set (TLE):
1 10563U 77121E   17292.50247239 +.00000274 +00000-0 +29672-3 0  9998
2 10563 065.8496 065.4888 0096596 101.5156 259.6777 13.86322265998319
Source of the keplerian elements: AFSPC